Location: Roanoke
(37.2710°N, 79.9420°W)
Time: 10:13:17
(UTC-05:00)

Courier 1B Rocket - Pass Details

Date: 19 November 2019
Orbit: 920 x 1202 km, 28.2° (Epoch: 08 December)

Event Time Altitude Azimuth Distance (km) Brightness Sun altitude
Rises 20:24:00 0° 264° (W) 4,038 9.1 -39.0°
Reaches altitude 10° 20:27:40 10° 248° (WSW) 3,103 8.2 -39.8°
Enters shadow 20:32:45 20° 207° (SSW) 2,461 7.2 -40.8°
Maximum altitude 20:32:55 20° 205° (SSW) 2,460 - -40.8°
Drops below altitude 10° 20:38:12 10° 162° (SSE) 3,120 - -41.8°
Sets 20:41:56 0° 146° (SE) 4,068 - -42.6°
